{"data":{"norad_id":59078,"epoch":"2026-09-20T08:45:16.046784Z","epoch_age_seconds":167355,"freshness":"FRESH","line1":"1 59078U 24041E   26263.36476906  .00000834  00000+0  39823-4 0  9993","line2":"2 59078  43.0018 291.3591 0001470 274.0379  86.0305 15.27581172144045","mean_motion":15.27581172,"eccentricity":0.000147,"inclination_deg":43.0018,"raan_deg":291.3591,"arg_perigee_deg":274.0379,"mean_anomaly_deg":86.0305,"bstar":3.9823e-5,"rev_number":14404,"period_min":94.266676389751,"perigee_km":482.03699281203,"apogee_km":484.05418049251,"semimajor_km":6861.1825866523,"source":"CELESTRAK","updated_at":"2026-09-21T09:00:34.034186Z"}}